[[{"header":{"parameterUnit":"m.s-1","parameterCategory":1,"la1":30.2992,"la2":30.254,"lo1":-89.0895,"lo2":-89.0443,"dy":0.0025,"dx":0.0025,"nx":19,"ny":19,"refTime":"2026-04-19T09:00:00:Z","depth":0,"parameterNumber":2,"parameterNumberName":"U-component_of_WINDS"},"data":[0,0,0,-1.9961,-1.9963,-2.0053,-2.0053,-2.0184,-2.0185,0,0,0,0,0,0,0,0,0,0,0,-1.9944,-1.9946,-1.996,-1.9963,-2.0053,-2.0053,-2.0183,-2.0185,0,0,0,0,0,0,0,0,0,0,0,-1.9944,-1.9945,-1.9947,-1.9963,-2.0053,-2.0053,-2.0183,-2.011,0,0,0,0,0,0,0,0,0,0,-2.0019,-2.0015,-1.9945,-1.9947,-1.9964,-2.0053,-2.0053,-2.0106,-2.0114,-2.015,0,-2.0185,0,-2.0187,-2.0195,-2.0195,0,0,0,-1.9955,-2.0008,-2.0023,-1.9947,-1.9965,-2.0053,-2.001,-2.011,-2.012,-2.0161,-2.0187,-2.0191,-2.0189,-2.0196,-2.0197,-2.0428,-2.0429,0,0,-1.995,-1.9967,-2.0016,-2.003,-2.0018,-2.0007,-2.0013,-2.0116,-2.0145,-2.0187,-2.0194,-2.0192,-2.0197,-2.0198,-2.0426,-2.0428,0,0,0,-1.9941,-1.9963,-1.9975,-2.0025,-2.004,-2.001,-2.0017,-2.014,-2.0143,-2.0195,-2.0193,-2.0198,-2.0199,-2.0425,-2.0427,-2.0513,0,0,0,-1.9938,-1.9958,-1.9973,-1.9984,-2.0038,-2.0091,-2.0039,-2.0136,-2.0147,-2.0192,-2.0198,-2.0201,-2.0423,-2.0426,-2.0507,-2.0551,0,0,0,-1.9935,-1.9958,-1.9974,-1.9985,-2.0024,-2.0089,-2.0097,-2.0138,-2.0146,-2.0195,-2.0201,-2.0422,-2.0426,-2.0502,-2.0543,-2.0615,0,0,0,-1.9937,-2.0052,-1.9976,-2.0102,-2.0023,-2.0142,-2.0097,-2.0184,-2.0237,-2.0198,-2.0423,-2.0427,-2.0501,-2.0538,-2.061,-2.0679,-2.0709,0,0,-2.009,-2.0071,-2.0143,-2.0078,-2.0214,-2.0127,-2.0275,-2.0309,-2.0299,-2.0385,-2.0391,-2.0509,-2.0542,-2.0614,-2.0876,-2.09,0,0,0,-2.0198,-2.025,-2.0282,-2.0333,-2.0361,-2.0387,-2.0396,-2.0407,-2.0479,-2.0347,-2.0555,-2.0574,-2.0616,-2.0648,-2.0668,-2.0702,-2.0443,-2.0442,-2.0442,-2.0439,-2.0419,-2.0537,-2.0526,-2.0576,-2.0582,-2.0619,-2.0636,-2.0603,-2.0652,-2.0677,-2.0839,-2.0877,-2.0892,-2.0928,-2.0713,-2.0713,-2.0713,-2.0714,-2.0661,-2.0732,-2.0681,-2.0778,-2.0755,-2.0835,-2.0844,-2.0817,-2.0888,-2.0819,-2.0854,-2.0779,-2.092,-2.0949,-2.072,-2.0719,-2.0718,-2.0717,-2.0717,-2.0817,-2.0847,-2.0858,-2.0926,-2.098,-2.0965,-2.1034,-2.1011,-2.099,-2.1026,-2.1048,-2.1047,-2.1041,-2.1038,-2.1038,-2.1039,-2.104,-2.104,-2.104,-2.0974,-2.0983,-2.1044,-2.108,-2.1107,-2.114,-2.1145,-2.1171,-2.1194,-2.1171,-2.1171,-2.1132,-2.0937,-2.0888,-2.1049,-2.1047,-2.1046,-2.1045,-2.1045,-2.1206,-2.1148,-2.1243,-2.127,-2.1308,-2.1362,-2.1331,-2.1385,-2.1403,-2.1437,-2.1389,-2.125,-2.1228,-2.1211,-2.117,-2.1394,-2.1394,-2.1394,-2.1394,-2.1336,-2.1322,-2.1411,-2.1456,-2.1496,-2.1476,-2.1581,-2.1585,-2.1579,-2.1589,-2.1553,-2.1497,-2.1481,-2.1468,-2.1446,-2.1408,-2.1687,-2.1687,-2.1688,-2.1477,-2.1465,-2.156,-2.1552,-2.1579,-2.1602,-2.17,-2.1751,-2.1734,-2.1699,-2.1595,-2.1583,-2.1492,-2.1464,-2.1428,-2.1394,-2.1323,0,0]},{"header":{"parameterUnit":"m.s-1","parameterCategory":1,"la1":30.2992,"la2":30.254,"lo1":-89.0895,"lo2":-89.0443,"dy":0.0025,"dx":0.0025,"nx":19,"ny":19,"refTime":"2026-04-19T09:00:00:Z","depth":0,"parameterNumber":3,"parameterNumberName":"V-component_of_WINDS"},"data":[0,0,0,-1.3304,-1.3305,-1.3389,-1.339,-1.3474,-1.3475,0,0,0,0,0,0,0,0,0,0,0,-1.3269,-1.3269,-1.3304,-1.3306,-1.3389,-1.339,-1.3474,-1.3475,0,0,0,0,0,0,0,0,0,0,0,-1.3268,-1.3269,-1.3269,-1.3306,-1.3389,-1.339,-1.3474,-1.3418,0,0,0,0,0,0,0,0,0,0,-1.334,-1.3298,-1.3269,-1.3269,-1.3306,-1.3389,-1.339,-1.3416,-1.3422,-1.3428,0,-1.3433,0,-1.3455,-1.348,-1.348,0,0,0,-1.3313,-1.3293,-1.3326,-1.3269,-1.3307,-1.3389,-1.3353,-1.3419,-1.3426,-1.3435,-1.3435,-1.3438,-1.3457,-1.348,-1.348,-1.3497,-1.3497,0,0,-1.3308,-1.3277,-1.3321,-1.333,-1.3319,-1.3351,-1.3356,-1.3424,-1.342,-1.3435,-1.3441,-1.3458,-1.348,-1.3481,-1.3498,-1.3497,0,0,0,-1.329,-1.3274,-1.3305,-1.3326,-1.3342,-1.3353,-1.3359,-1.3417,-1.3429,-1.3442,-1.3459,-1.3481,-1.3482,-1.3498,-1.3497,-1.3455,0,0,0,-1.3288,-1.3263,-1.3303,-1.3284,-1.3341,-1.3381,-1.335,-1.3425,-1.3433,-1.3459,-1.3481,-1.3482,-1.3498,-1.3498,-1.3457,-1.344,0,0,0,-1.3267,-1.3261,-1.327,-1.3283,-1.3318,-1.3381,-1.3398,-1.3427,-1.3444,-1.348,-1.3482,-1.3499,-1.3498,-1.3459,-1.3443,-1.3434,0,0,0,-1.3235,-1.3231,-1.3269,-1.3271,-1.3317,-1.3355,-1.3398,-1.3427,-1.3453,-1.3481,-1.3498,-1.3498,-1.3459,-1.3444,-1.3436,-1.3421,-1.3413,0,0,-1.3213,-1.3227,-1.3231,-1.3267,-1.3291,-1.3345,-1.3361,-1.3413,-1.3444,-1.3477,-1.3478,-1.3456,-1.3443,-1.3435,-1.3377,-1.337,0,0,0,-1.3213,-1.3215,-1.3228,-1.3253,-1.3293,-1.3325,-1.3378,-1.3397,-1.3427,-1.3456,-1.3453,-1.3446,-1.3442,-1.3436,-1.343,-1.3428,-1.3494,-1.3494,-1.3494,-1.3137,-1.3178,-1.3185,-1.3235,-1.3257,-1.3312,-1.3333,-1.3367,-1.34,-1.3398,-1.3408,-1.3369,-1.3361,-1.3357,-1.3354,-1.3405,-1.3405,-1.3405,-1.3405,-1.3107,-1.3116,-1.316,-1.3184,-1.3225,-1.3244,-1.3295,-1.3317,-1.3339,-1.3365,-1.3364,-1.3388,-1.3348,-1.3348,-1.3402,-1.3402,-1.3403,-1.3403,-1.3403,-1.3061,-1.3072,-1.3096,-1.3134,-1.3158,-1.3208,-1.3227,-1.3263,-1.3298,-1.3297,-1.331,-1.331,-1.3314,-1.3301,-1.33,-1.33,-1.33,-1.33,-1.33,-1.3003,-1.3032,-1.3044,-1.3086,-1.3106,-1.3135,-1.3188,-1.3207,-1.3238,-1.3263,-1.3263,-1.3294,-1.3338,-1.3347,-1.3298,-1.3298,-1.3299,-1.3299,-1.3299,-1.2956,-1.2972,-1.2992,-1.3011,-1.3062,-1.3082,-1.3129,-1.3164,-1.3185,-1.3192,-1.3224,-1.3251,-1.3268,-1.3273,-1.328,-1.3217,-1.3217,-1.3217,-1.3217,-1.2915,-1.2928,-1.2956,-1.2984,-1.3015,-1.3059,-1.3076,-1.3116,-1.316,-1.3174,-1.3189,-1.3203,-1.3206,-1.3221,-1.3227,-1.3235,-1.3161,-1.3161,-1.3161,-1.2887,-1.2905,-1.2914,-1.2959,-1.3,-1.3034,-1.3051,-1.3079,-1.3131,-1.316,-1.3186,-1.3188,-1.3211,-1.3217,-1.3245,-1.3253,-1.3268,0,0]}]]